[[[{"header":{"parameterUnit":"kt","parameterCategory":2,"dx":1,"dy":1,"la1":30.253999710083008,"la2":30.299108505249023,"lo1":-89.0895004272461,"lo2":-89.04439544677734,"nx":28,"ny":28,"refTime":"2022-09-22T21:00:00:Z","depth":0,"parameterNumber":1,"parameterNumberName":"U-component_of_WINDS"},"data":[-5.7833,-5.805,-5.808,-5.8341,-5.8412,-5.8596,-5.8671,-5.8771,-5.8859,-5.9081,-5.9215,-5.9267,-5.9367,-5.9533,-5.968,-5.97,-5.9762,-5.9816,-5.9831,-5.956,-5.9525,-5.9491,-5.9444,-5.9827,-5.9828,-6.011,-6.0112,-6.0114,-5.7631,-5.7704,-5.785,-5.8013,-5.8138,-5.8104,-5.823,-5.8339,-5.8504,-5.8613,-5.8746,-5.8944,-5.9105,-5.9188,-5.9348,-5.9451,-5.9446,-5.9492,-5.9488,-5.9505,-5.9215,-5.9164,-5.9494,-5.9494,-5.9494,-5.9494,-5.9494,-5.9494,-5.7271,-5.74,-5.7516,-5.7676,-5.7765,-5.7874,-5.8002,-5.8063,-5.8207,-5.8378,-5.8385,-5.8573,-5.8689,-5.8897,-5.8974,-5.9121,-5.9076,-5.9137,-5.9154,-5.9171,-5.9185,-5.878,-5.9149,-5.9148,-5.9148,-5.9147,-5.9146,0,-5.7019,-5.7036,-5.7179,-5.7331,-5.7448,-5.7569,-5.7685,-5.7764,-5.7811,-5.7928,-5.81,-5.8204,-5.841,-5.8577,-5.8733,-5.8802,-5.8782,-5.8781,-5.8825,-5.8828,-5.8809,-5.8826,-5.8356,-5.8772,-5.8769,-5.8767,-5.8765,-5.8764,-5.6663,-5.6808,-5.6944,-5.704,-5.7111,-5.7266,-5.7364,-5.7394,-5.7497,-5.7644,-5.7756,-5.7922,-5.8057,-5.8328,-5.84,-5.8555,-5.8548,-5.8704,-5.8571,-5.8566,-5.8556,-5.855,-5.8566,-5.8731,-5.8735,-5.8739,-5.8741,0,-5.6461,-5.651,-5.6744,-5.6865,-5.69,-5.705,-5.7154,-5.7283,-5.7329,-5.7513,-5.7558,-5.7632,-5.7801,-5.7848,-5.805,-5.807,-5.8321,-5.8307,-5.8282,-5.8284,-5.8431,-5.8419,-5.8895,-5.8961,-5.8558,-5.8562,-5.8565,0,-5.6179,-5.6368,-5.6431,-5.6565,-5.6775,-5.6801,-5.7009,-5.707,-5.717,-5.7315,-5.7298,-5.7435,-5.7473,-5.7618,-5.7647,-5.786,-5.7897,-5.7927,-5.7934,-5.7932,-5.7929,-5.7992,-5.7976,-5.7937,-5.7934,-5.7932,-5.793,0,-5.5861,-5.6115,-5.6331,-5.6397,-5.6546,-5.6647,-5.6714,-5.6826,-5.6923,-5.7055,-5.7118,-5.727,-5.7355,-5.7473,-5.751,-5.7419,-5.777,-5.7653,-5.7802,-5.7801,-5.7882,-5.7877,-5.8282,-5.7927,-5.7926,-5.7925,-5.7925,0,-5.5644,-5.5776,-5.6081,-5.6205,-5.6271,-5.6413,-5.6565,-5.6697,-5.6817,-5.6845,-5.6949,-5.6945,-5.7132,-5.7013,-5.7272,-5.7143,-5.7228,-5.7272,-5.7284,-5.7309,-5.7175,-5.7404,-5.778,-5.7824,-5.7324,-5.7319,-5.7315,0,-5.5268,-5.5589,-5.5614,-5.5903,-5.6058,-5.603,-5.6188,-5.6294,-5.6345,-5.6484,-5.6539,-5.6698,-5.6619,-5.6676,-5.6797,-5.6862,-5.7029,-5.684,-5.7045,-5.7052,-5.7019,-5.7364,-5.7412,-5.7691,-5.7251,-5.7258,-5.7263,0,-5.4985,-5.5164,-5.5214,-5.5292,-5.5437,-5.5566,-5.5746,-5.591,-5.6001,-5.6121,-5.6276,-5.6498,-5.6449,-5.6542,-5.6555,-5.668,-5.6916,-5.6611,-5.6614,-5.6668,-5.7222,-5.7266,-5.7312,-5.6898,-5.6906,-5.6912,-5.7212,0,-5.4653,-5.4819,-5.4954,-5.5125,-5.5231,-5.5414,-5.5465,-5.5571,-5.5572,-5.5622,-5.5848,-5.5949,-5.6116,-5.6179,-5.6183,-5.6451,-5.6415,-5.636,-5.6252,-5.6476,-5.6577,-5.6618,-5.6098,-5.6095,-5.6092,-5.609,0,0,-5.4285,-5.4524,-5.4547,-5.4723,-5.4816,-5.4785,-5.4977,-5.5062,-5.5238,-5.5303,-5.5241,-5.557,-5.5656,-5.5926,-5.5999,-5.6065,-5.6119,-5.6039,-5.6368,-5.6399,-5.6427,-5.6534,-5.6575,-5.6086,-5.6085,-5.6084,-5.6083,0,-5.4176,-5.426,-5.4448,-5.4538,-5.4672,-5.4716,-5.476,-5.4889,-5.493,-5.515,-5.5124,-5.5265,-5.5527,-5.5623,-5.5705,-5.6006,-5.5981,-5.6052,-5.6199,-5.6341,-5.6375,-5.6405,-5.6517,-5.6556,-5.6077,-5.6078,-5.6078,0,-5.391,-5.4003,-5.4099,-5.4305,-5.4393,-5.4553,-5.445,-5.4623,-5.4742,-5.4702,-5.4923,-5.4986,-5.5116,-5.5363,-5.5475,-5.5424,-5.5853,-5.5725,-5.5742,-5.5757,-5.5898,-5.5939,-5.5975,-5.5498,-5.5496,-5.5494,0,0,-5.3809,-5.3963,-5.4074,-5.4286,-5.4342,-5.441,-5.45,-5.4512,-5.4629,-5.4676,-5.4758,-5.4874,-5.5026,-5.5127,-5.5273,-5.5535,-5.5567,-5.5652,-5.5679,-5.5701,-5.5728,-5.5875,-5.5915,-5.5486,-5.5485,-5.5485,0,0,-5.3761,-5.3899,-5.388,-5.4132,-5.4244,-5.4369,-5.4497,-5.4477,-5.4614,-5.4599,-5.4629,-5.4661,-5.4892,-5.4956,-5.4837,-5.5236,-5.5127,-5.5156,-5.5187,-5.5222,-5.5249,-5.5231,-5.4749,0,0,0,0,0,-5.3677,-5.3881,-5.3863,-5.3913,-5.4174,-5.4378,-5.4412,-5.4441,-5.4363,-5.4464,-5.4529,-5.4495,-5.4898,-5.4793,-5.4843,-5.4977,-5.5377,-5.5396,-5.5415,-5.5516,-5.5552,-5.5583,0,0,0,0,0,0,-5.3697,-5.3758,-5.3857,-5.399,-5.4049,-5.4371,-5.4246,-5.426,-5.4353,-5.4343,-5.4483,-5.4499,-5.4528,-5.477,-5.4814,-5.4941,-5.4734,-5.5385,-5.5401,-5.5416,-5.5528,-5.5558,-5.5583,0,0,0,0,0,-5.3713,-5.3762,-5.4174,-5.3987,-5.4039,-5.4125,-5.4239,-5.4249,-5.4322,-5.4424,-5.4439,-5.4335,-5.4531,-5.457,-5.4796,-5.492,-5.4704,-5.472,-5.5395,-5.5408,-5.542,-5.5543,0,0,0,0,0,0,-5.3725,-5.3774,-5.4185,-5.4202,-5.3913,-5.4108,-5.4139,-5.424,-5.4397,-5.4414,-5.4276,-5.4267,-5.4536,-5.4565,-5.4596,-5.4911,-5.4679,-5.4696,-5.4706,-5.5405,-5.5415,-5.5424,0,0,0,0,0,0,-5.3747,-5.3788,-5.4194,-5.4098,-5.4104,-5.4092,-5.412,-5.4316,-5.4399,-5.4241,-5.4237,-5.427,-5.449,-5.4563,-5.4586,-5.4891,-5.466,-5.4676,-5.4687,-5.4694,-5.5413,-5.5421,0,0,0,0,0,0,-5.3765,-5.38,-5.4094,-5.4099,-5.4103,-5.4293,-5.4265,-5.4532,-5.4316,-5.4234,-5.4297,-5.4289,-5.4489,-5.4513,-5.458,-5.4875,-5.4887,-5.466,-5.4671,-5.4679,-5.4684,0,0,0,0,0,0,0,-5.3779,-5.3538,-5.4086,-5.4099,-5.4103,-5.4357,-5.4361,-5.4366,-5.4314,-5.4307,-5.4299,-5.4292,-5.4568,-5.4586,-5.4604,-5.4862,0,0,-5.4659,-5.4666,0,0,0,0,0,0,0,0,-5.3524,-5.3535,-5.4086,-5.409,-5.4093,-5.4357,-5.4361,-5.4365,-5.4313,-5.4307,-5.4301,-5.4295,-5.4573,-5.4587,-5.4602,0,0,0,0,0,0,0,0,0,0,0,0,0,0,0,-5.4087,-5.409,0,-5.4358,-5.4361,-5.4364,-5.4312,-5.4307,-5.4302,-5.4298,-5.4577,-5.4589,-5.4601,0,0,0,0,0,0,0,0,0,0,0,0,0,0,0,0,0,0,0,0,0,0,0,0,0,0,0,0,0,0,0,0,0,0,0,0,0,0,0,0,0,0,0,0,0,0,0,0,0,0,0,0,0,0,0,0,0,0,0,0,0,0,0,0,0,0,0,0,0]}],[{"header":{"parameterUnit":"kt","parameterCategory":2,"dx":1,"dy":1,"la1":30.253999710083008,"la2":30.299108505249023,"lo1":-89.0895004272461,"lo2":-89.04439544677734,"nx":28,"ny":28,"refTime":"2022-09-22T21:00:00:Z","depth":0,"parameterNumber":2,"parameterNumberName":"V-component_of_WINDS"},"data":[-10.4662,-10.483,-10.4834,-10.5025,-10.506,-10.5189,-10.5236,-10.5296,-10.5343,-10.5494,-10.558,-10.5597,-10.5641,-10.5741,-10.5831,-10.5835,-10.5873,-10.593,-10.5925,-10.5673,-10.5638,-10.5605,-10.5567,-10.5938,-10.5939,-10.6185,-10.6187,-10.6189,-10.4475,-10.4513,-10.4616,-10.4718,-10.4805,-10.4753,-10.4827,-10.4902,-10.5018,-10.5077,-10.5163,-10.5294,-10.5396,-10.5422,-10.5519,-10.5592,-10.5571,-10.5618,-10.5612,-10.5619,-10.535,-10.531,-10.5633,-10.5633,-10.5633,-10.5633,-10.5633,-10.5633,-10.4134,-10.4235,-10.43,-10.4411,-10.4463,-10.453,-10.4624,-10.4645,-10.4742,-10.4849,-10.4831,-10.496,-10.5017,-10.5134,-10.5173,-10.527,-10.5217,-10.5268,-10.5281,-10.5294,-10.5308,-10.495,-10.5287,-10.5286,-10.5285,-10.5284,-10.5283,0,-10.3886,-10.3883,-10.3982,-10.4083,-10.4164,-10.4241,-10.4311,-10.4369,-10.4358,-10.4439,-10.4555,-10.4621,-10.4751,-10.4857,-10.4948,-10.4977,-10.4927,-10.4922,-10.4956,-10.4967,-10.4965,-10.4967,-10.4528,-10.4912,-10.4909,-10.4906,-10.4905,-10.4903,-10.3542,-10.3659,-10.3728,-10.3797,-10.3837,-10.3948,-10.4014,-10.3996,-10.4066,-10.4147,-10.4234,-10.4342,-10.4427,-10.4608,-10.4626,-10.4721,-10.4697,-10.4843,-10.4711,-10.4716,-10.4697,-10.4691,-10.4701,-10.4869,-10.4874,-10.4877,-10.488,0,-10.3347,-10.3353,-10.3536,-10.3592,-10.3609,-10.3731,-10.3776,-10.3874,-10.3882,-10.4017,-10.4046,-10.4059,-10.4171,-10.4165,-10.4291,-10.4283,-10.4477,-10.4452,-10.4457,-10.4452,-10.4581,-10.4569,-10.5006,-10.5061,-10.4677,-10.4681,-10.4684,0,-10.3055,-10.3209,-10.3209,-10.3314,-10.3483,-10.3463,-10.3629,-10.3653,-10.3705,-10.381,-10.3755,-10.3854,-10.3831,-10.3929,-10.3919,-10.4076,-10.41,-10.4103,-10.4099,-10.4109,-10.4108,-10.4143,-10.4124,-10.4085,-10.4083,-10.4081,-10.4079,0,-10.2749,-10.293,-10.3102,-10.3143,-10.3218,-10.3298,-10.3331,-10.3388,-10.3453,-10.3534,-10.3574,-10.367,-10.3722,-10.3795,-10.3782,-10.3692,-10.3975,-10.3848,-10.3978,-10.3978,-10.404,-10.4037,-10.4426,-10.4076,-10.4076,-10.4075,-10.4074,0,-10.2514,-10.2602,-10.2851,-10.2911,-10.2958,-10.3071,-10.3165,-10.3261,-10.3324,-10.3326,-10.339,-10.3351,-10.3491,-10.3365,-10.3554,-10.3441,-10.3494,-10.351,-10.352,-10.3531,-10.3391,-10.361,-10.3982,-10.402,-10.3541,-10.3537,-10.3533,0,-10.2161,-10.2415,-10.24,-10.2635,-10.2751,-10.2682,-10.2805,-10.2865,-10.2878,-10.2975,-10.2987,-10.3098,-10.3003,-10.3037,-10.3132,-10.3148,-10.3295,-10.3128,-10.3262,-10.3268,-10.3248,-10.359,-10.3647,-10.3902,-10.3476,-10.3482,-10.3487,0,-10.1889,-10.1982,-10.2025,-10.2071,-10.215,-10.2246,-10.2388,-10.2495,-10.256,-10.2633,-10.275,-10.2905,-10.2839,-10.2895,-10.2874,-10.2973,-10.3195,-10.2889,-10.289,-10.2943,-10.3448,-10.3501,-10.3544,-10.3158,-10.3164,-10.317,-10.3441,0,-10.153,-10.1658,-10.1776,-10.1882,-10.1956,-10.2104,-10.2102,-10.2179,-10.2152,-10.2163,-10.2335,-10.2381,-10.2487,-10.2534,-10.2508,-10.2738,-10.2698,-10.2627,-10.2504,-10.2729,-10.2818,-10.2855,-10.2372,-10.2368,-10.2365,-10.2362,0,0,-10.1191,-10.1375,-10.1354,-10.1494,-10.1555,-10.1482,-10.164,-10.169,-10.1793,-10.1835,-10.1767,-10.1993,-10.2034,-10.2242,-10.2312,-10.2355,-10.2394,-10.2316,-10.2622,-10.2652,-10.2678,-10.2774,-10.2812,-10.2357,-10.2356,-10.2355,-10.2354,0,-10.106,-10.111,-10.1268,-10.132,-10.1397,-10.1402,-10.144,-10.1502,-10.1516,-10.1686,-10.162,-10.1722,-10.1904,-10.1955,-10.2005,-10.2291,-10.2235,-10.2324,-10.2479,-10.2592,-10.2625,-10.2654,-10.2755,-10.2791,-10.2346,-10.2347,-10.2347,0,-10.0791,-10.0839,-10.0916,-10.1055,-10.1104,-10.1225,-10.1096,-10.123,-10.1318,-10.1228,-10.1397,-10.1422,-10.149,-10.1688,-10.1777,-10.1717,-10.209,-10.1972,-10.1991,-10.2,-10.2109,-10.2149,-10.2184,-10.1716,-10.1714,-10.1712,0,0,-10.0677,-10.0797,-10.0842,-10.1026,-10.1062,-10.1072,-10.1136,-10.1116,-10.1182,-10.1209,-10.124,-10.1304,-10.1408,-10.1478,-10.1576,-10.1794,-10.1805,-10.1894,-10.1924,-10.1949,-10.1971,-10.2086,-10.2125,-10.1704,-10.1704,-10.1703,0,0,-10.0622,-10.0683,-10.0646,-10.086,-10.0927,-10.0981,-10.1092,-10.1047,-10.1136,-10.1118,-10.1088,-10.1104,-10.1289,-10.1316,-10.1207,-10.1532,-10.141,-10.1436,-10.1508,-10.1545,-10.1574,-10.1564,-10.108,0,0,0,0,0,-10.0489,-10.0676,-10.0642,-10.0677,-10.0852,-10.1001,-10.1022,-10.1004,-10.0919,-10.1007,-10.1026,-10.0962,-10.1251,-10.1154,-10.1188,-10.131,-10.1598,-10.1617,-10.1635,-10.1778,-10.1817,-10.185,0,0,0,0,0,0,-10.0502,-10.0547,-10.0636,-10.07,-10.0738,-10.0994,-10.0845,-10.0845,-10.0909,-10.0894,-10.096,-10.0964,-10.0949,-10.1135,-10.1166,-10.1282,-10.1069,-10.1606,-10.1621,-10.1636,-10.1792,-10.1824,-10.1851,0,0,0,0,0,-10.0513,-10.0549,-10.0834,-10.0697,-10.0731,-10.0751,-10.0838,-10.0836,-10.0885,-10.0915,-10.0917,-10.0866,-10.0953,-10.0977,-10.1153,-10.1268,-10.1048,-10.1059,-10.1616,-10.1628,-10.164,-10.1807,0,0,0,0,0,0,-10.0522,-10.0548,-10.084,-10.085,-10.0625,-10.0736,-10.0753,-10.083,-10.0901,-10.0905,-10.0819,-10.0807,-10.0958,-10.0976,-10.0995,-10.1265,-10.103,-10.1042,-10.1049,-10.1625,-10.1635,-10.1644,0,0,0,0,0,0,-10.0528,-10.0556,-10.0845,-10.0756,-10.0755,-10.0723,-10.0738,-10.0884,-10.0903,-10.08,-10.0792,-10.0812,-10.0927,-10.0976,-10.099,-10.122,-10.1017,-10.1028,-10.1036,-10.1041,-10.1633,-10.1641,0,0,0,0,0,0,-10.054,-10.0564,-10.0753,-10.0753,-10.0751,-10.0856,-10.0851,-10.103,-10.0831,-10.0798,-10.0812,-10.0803,-10.0929,-10.0943,-10.0988,-10.1211,-10.1217,-10.1017,-10.1025,-10.103,-10.1034,0,0,0,0,0,0,0,-10.0549,-10.0394,-10.0785,-10.075,-10.0749,-10.0937,-10.0939,-10.0942,-10.0829,-10.0821,-10.0814,-10.0807,-10.0952,-10.0964,-10.0977,-10.1204,0,0,-10.1016,-10.1021,0,0,0,0,0,0,0,0,-10.0383,-10.0391,-10.0785,-10.0787,-10.0789,-10.0937,-10.0939,-10.0941,-10.0827,-10.0821,-10.0815,-10.081,-10.0955,-10.0965,-10.0975,0,0,0,0,0,0,0,0,0,0,0,0,0,0,0,-10.0785,-10.0787,0,-10.0938,-10.0939,-10.0941,-10.0827,-10.0822,-10.0817,-10.0812,-10.0958,-10.0966,-10.0975,0,0,0,0,0,0,0,0,0,0,0,0,0,0,0,0,0,0,0,0,0,0,0,0,0,0,0,0,0,0,0,0,0,0,0,0,0,0,0,0,0,0,0,0,0,0,0,0,0,0,0,0,0,0,0,0,0,0,0,0,0,0,0,0,0,0,0,0,0]}]]]